Theta_e
314 314 314 314 314 314 314 314 315 317 319 318 316 315 314 313 311 311 312 310 313 310 311 312 312 312 313 316 315 314 320 321 320 317 317 312 314 312 312 314 316 321 316 321 330
314 314 314 314 314 314 313 314 314 315 317 319 317 315 314 312 313 313 312 308 309 310 311 312 315 314 316 316 317 320 322 320 315 315 316 314 314 314 314 314 314 315 317 325 332
314 314 314 314 314 314 314 313 314 315 316 318 317 316 314 314 316 316 311 308 309 311 311 312 313 315 317 316 316 317 321 315 313 312 313 314 314 313 314 315 315 315 315 323 331
314 314 314 314 314 314 314 313 314 315 316 318 317 316 314 316 324 313 308 307 309 311 312 314 314 317 317 316 315 317 313 313 315 315 313 314 313 314 314 316 313 313 313 322 330
314 314 314 314 314 314 314 314 314 315 317 318 317 315 315 317 318 311 308 309 310 311 313 314 315 316 317 315 316 316 314 314 313 312 311 311 313 313 313 314 313 311 314 321 325
313 313 313 313 313 314 314 314 314 315 317 317 316 314 316 319 311 309 308 309 310 311 313 313 314 314 315 316 317 315 314 314 313 312 313 314 315 313 317 313 313 312 315 321 325
313 313 313 313 313 313 314 314 314 315 317 317 315 314 315 317 309 309 308 309 310 310 314 313 313 314 314 316 313 314 316 315 314 313 315 313 318 316 318 313 314 313 314 319 325
312 312 312 312 312 313 313 313 314 316 317 316 315 315 319 310 307 310 309 310 310 310 311 311 311 314 315 314 316 317 319 322 317 314 314 315 323 319 315 314 316 315 314 313 319
312 311 311 311 311 312 313 313 315 317 316 316 315 315 319 309 309 310 309 310 311 311 310 311 314 317 316 319 322 320 324 322 321 314 315 316 322 319 314 314 316 316 315 314 313
312 311 310 310 311 311 312 314 317 318 317 315 314 318 312 313 308 309 311 310 312 314 315 317 317 318 319 320 328 323 321 320 322 316 314 317 318 319 316 313 316 317 317 315 314
311 310 310 311 311 312 313 316 316 317 317 320 317 316 314 310 310 310 311 311 312 315 318 317 319 321 319 319 318 319 321 322 319 313 315 319 319 318 318 317 317 317 317 317 316
310 310 310 312 312 314 316 317 315 315 316 314 314 315 313 311 316 310 310 314 314 316 317 319 320 319 315 316 319 320 321 322 318 313 315 318 318 319 319 319 319 318 318 317 317
309 310 311 312 313 315 315 315 316 313 317 313 314 315 314 312 317 315 312 313 315 315 317 318 317 314 315 316 318 319 320 320 319 316 313 315 321 321 318 313 313 314 315 315 315
312 313 314 314 313 316 316 315 314 311 315 316 314 314 309 310 313 311 310 314 316 317 316 317 314 315 316 318 317 321 315 315 317 320 325 315 325 323 321 319 318 319 320 317 315
315 315 316 314 314 317 315 316 314 307 324 312 313 308 308 311 312 313 310 313 317 316 317 318 316 315 317 317 316 319 313 316 315 319 319 318 324 322 317 319 320 321 316 313 312
316 316 316 314 315 316 316 316 310 314 318 310 312 311 310 309 313 313 313 312 313 316 316 317 311 313 315 310 311 311 314 315 316 319 328 321 321 323 321 321 320 318 315 312 310
317 316 316 314 315 316 317 314 318 319 306 309 315 311 311 310 314 314 316 316 319 322 320 317 317 311 311 315 312 313 319 333 333 328 328 313 318 321 320 319 317 317 316 312 312
316 315 314 313 316 316 314 317 315 309 308 313 314 312 314 310 310 315 315 317 315 315 318 324 332 315 312 316 319 316 319 331 341 327 323 311 320 320 317 315 314 312 309 310 311
316 314 312 313 315 317 321 320 314 309 308 315 313 316 316 314 312 315 316 316 316 315 320 320 319 311 309 310 313 315 319 316 321 316 320 320 319 316 317 316 315 313 312 311 310
311 311 311 311 315 316 320 314 315 309 311 314 316 315 317 316 315 314 314 313 314 314 313 315 318 311 309 309 309 313 313 320 319 329 321 318 319 321 319 318 313 313 313 311 310
308 311 308 310 313 316 317 315 313 311 314 315 316 315 314 316 315 315 315 313 312 312 313 314 315 313 311 314 316 313 315 313 316 319 330 318 316 316 315 312 313 313 311 310 309
306 310 305 311 315 316 317 315 313 313 311 314 314 315 315 314 316 315 316 313 312 313 315 314 316 317 315 310 309 311 315 315 320 319 319 317 318 312 311 312 312 313 314 314 313
307 306 303 304 314 316 315 316 314 314 313 314 314 315 315 317 317 315 314 312 312 314 316 314 317 319 317 314 310 313 312 313 314 315 318 322 317 310 310 309 309 310 309 310 312
304 305 305 303 301 310 315 316 316 306 312 311 313 313 315 316 315 316 317 310 309 311 311 313 318 316 314 313 314 314 312 311 314 319 318 319 317 316 308 307 306 304 304 305 305
302 303 303 306 303 303 303 305 307 308 304 306 309 311 315 316 315 316 315 311 308 306 310 314 320 319 318 318 316 318 317 313 314 315 318 317 317 308 304 302 302 302 302 303 303
303 304 302 302 302 303 304 304 305 304 304 305 306 304 305 310 308 311 310 309 311 306 308 307 317 313 316 315 314 315 315 316 317 317 318 318 318 301 300 300 300 302 301 301 302
300 301 303 303 304 305 304 304 304 304 302 302 302 303 304 303 302 302 303 304 304 306 307 308 310 313 317 311 310 312 309 309 309 305 307 314 302 299 298 300 300 301 300 301 301
Wind_Speed
1 1 4 6 8 9 11 13 13 12 11 9 6 5 4 1 2 4 4 2 2 2 1 3 4 4 3 3 1 1 4 4 2 5 3 6 7 3 1 3 4 7 3 3 9
4 3 3 5 8 10 11 12 14 14 13 10 6 5 4 1 3 6 4 2 1 2 2 7 6 6 3 2 1 3 3 2 1 1 1 8 6 7 5 7 7 7 6 3 14
5 4 5 6 7 10 11 13 13 14 14 12 5 5 3 1 2 2 3 2 2 3 4 4 4 3 3 2 2 2 3 1 1 1 1 5 5 3 5 7 9 9 9 9 14
6 5 5 5 6 8 11 13 14 15 14 9 4 4 2 2 1 2 1 2 2 3 4 4 4 5 4 5 3 3 1 1 2 2 2 4 2 4 9 5 3 4 5 12 13
8 7 7 7 8 9 10 12 13 15 12 5 3 4 2 2 1 1 2 0 3 4 3 4 6 4 4 4 5 4 4 3 2 3 2 1 6 7 11 11 8 4 7 12 13
9 9 8 8 9 10 11 13 13 13 8 3 1 1 1 3 1 2 1 1 2 3 2 3 2 2 4 2 4 2 4 3 4 4 3 4 3 2 5 4 8 11 12 11 14
10 10 10 10 10 11 12 12 13 11 5 2 1 2 2 3 0 2 1 2 2 2 1 0 1 3 5 4 3 3 2 2 6 4 3 2 8 10 10 8 8 11 13 13 15
11 10 11 11 11 12 13 13 13 9 4 2 1 2 2 2 1 2 2 3 5 4 4 4 3 4 3 4 3 3 2 4 4 5 2 4 11 6 6 9 11 12 14 15 17
12 11 11 11 12 13 14 14 13 5 3 2 2 3 2 3 3 2 3 3 4 5 5 4 2 2 3 3 2 3 4 6 2 4 1 7 7 0 4 7 10 11 12 14 14
13 11 10 11 12 14 14 12 4 2 2 2 2 2 3 5 5 4 4 5 3 4 2 1 2 3 3 6 5 4 5 4 6 2 4 8 17 14 7 7 11 13 13 13 15
14 12 10 9 9 11 12 3 2 3 4 4 1 2 3 3 3 3 5 6 3 2 4 1 5 10 10 10 3 1 2 5 2 2 3 10 15 19 14 13 17 19 18 18 20
16 13 10 8 8 7 5 2 1 1 3 1 2 0 1 0 2 2 5 6 6 6 5 3 10 7 2 6 7 5 7 9 3 1 3 11 18 19 20 15 16 16 15 17 17
17 14 11 7 6 3 2 5 3 2 3 1 1 2 2 4 3 5 5 3 4 8 11 11 1 3 7 6 8 7 10 6 4 2 2 10 14 8 2 4 9 13 14 14 13
18 16 12 6 3 5 1 5 3 2 2 4 4 3 3 3 3 1 2 1 3 8 7 8 2 5 6 6 8 10 7 5 4 3 5 4 9 13 7 11 12 12 11 12 13
20 16 13 10 7 6 6 6 4 1 4 4 4 2 3 4 6 2 1 2 5 6 5 3 6 6 6 4 8 1 3 4 2 3 4 5 5 6 2 13 16 14 3 6 6
22 19 15 10 8 10 11 7 3 2 8 3 4 5 6 3 3 4 3 1 2 4 2 2 1 3 1 4 3 11 5 4 4 1 4 8 10 16 8 9 4 3 4 9 7
25 22 18 12 7 15 14 5 3 5 2 6 4 5 6 7 6 7 8 9 6 6 9 3 5 3 3 5 5 3 5 2 3 3 5 4 7 15 18 14 10 13 9 9 9
28 23 18 11 14 18 10 3 7 3 5 3 3 4 5 7 4 7 8 8 8 4 3 6 4 11 8 4 5 9 4 4 4 3 2 2 7 5 9 13 8 7 7 8 7
31 26 14 15 15 15 5 7 8 7 4 8 4 5 6 4 3 5 9 5 11 16 10 7 3 2 1 1 2 6 8 1 4 2 4 7 8 10 13 13 10 13 12 12 10
25 15 8 20 18 10 6 10 7 5 5 4 9 7 7 8 9 9 10 5 4 14 3 5 3 1 3 2 2 3 5 3 2 4 8 5 5 6 4 9 11 14 14 14 14
4 4 9 18 18 3 10 8 7 6 7 6 6 3 3 5 8 6 4 2 2 4 6 6 4 3 4 10 11 5 4 2 2 3 4 8 3 2 5 10 11 13 13 14 13
2 3 6 19 6 3 10 11 7 10 4 3 2 4 6 7 7 7 8 3 2 7 9 7 2 5 6 1 3 3 6 12 6 7 5 4 8 6 11 13 13 12 14 15 15
2 2 2 1 7 7 4 11 11 12 8 8 10 7 6 6 4 7 6 3 7 1 5 8 5 4 4 1 1 6 6 7 5 4 18 11 5 7 14 14 17 20 20 18 17
0 2 1 1 2 2 7 6 12 4 8 3 3 3 5 7 7 4 6 5 4 4 5 2 5 10 12 5 4 5 7 11 15 11 15 21 22 17 16 18 17 16 15 16 17
1 2 2 2 2 2 2 3 3 3 2 1 2 7 7 10 15 13 8 4 4 8 3 1 7 11 13 7 3 10 10 10 15 18 15 20 18 10 11 13 12 8 11 12 14
3 2 2 2 3 3 3 2 2 3 2 1 4 4 3 3 2 2 4 2 1 4 1 2 4 1 9 11 9 13 14 15 15 18 20 23 20 7 9 8 10 4 10 12 13
3 3 1 1 3 4 2 3 3 2 4 5 6 6 10 5 4 5 6 4 3 2 2 2 1 3 11 2 3 9 7 12 4 2 2 5 5 8 10 9 10 8 11 13 15
Wind_Direction
253 334 348 356 354 359 1 359 357 356 357 348 343 354 358 282 189 183 223 214 213 264 293 166 151 150 139 116 40 260 235 248 230 186 129 145 189 150 308 212 206 193 251 71 159
260 286 325 345 346 350 354 356 354 351 347 342 322 335 336 242 206 230 211 270 236 215 175 187 168 162 146 126 135 247 245 248 8 203 230 170 194 172 203 204 222 224 206 160 164
267 286 315 332 338 340 347 349 349 347 344 335 316 323 319 173 229 194 215 294 242 195 180 166 139 189 174 173 160 172 270 11 206 232 256 169 202 188 223 226 229 229 223 187 182
267 274 287 307 321 329 336 342 344 342 341 333 309 312 306 143 294 147 315 291 213 188 162 156 172 179 183 190 153 225 229 206 148 163 185 190 156 224 227 244 154 253 219 188 193
266 275 283 297 308 317 325 332 338 340 343 340 306 317 135 197 305 203 323 104 161 166 203 191 187 176 208 169 163 212 177 185 158 183 223 203 236 267 247 237 221 228 205 203 200
266 275 283 292 303 311 318 325 330 337 345 353 325 339 183 245 116 338 327 141 164 174 172 199 247 189 124 166 225 133 174 172 190 194 217 249 238 267 233 196 221 217 218 207 202
262 274 285 292 296 303 310 316 320 323 325 325 288 139 170 280 213 9 54 91 67 151 155 41 61 274 147 146 131 123 206 220 210 200 229 246 238 230 242 209 240 214 214 214 209
257 268 280 291 300 304 307 311 309 303 276 226 197 158 244 176 138 60 97 73 75 72 98 105 95 96 3 118 120 195 227 236 148 185 159 226 265 223 203 213 230 216 216 218 218
254 264 277 291 301 304 307 310 308 268 224 210 192 213 206 153 171 111 83 106 89 72 72 91 68 80 143 216 200 206 250 223 229 203 227 225 278 238 211 236 249 234 229 230 232
248 256 270 286 300 307 311 311 289 223 192 187 148 242 166 184 162 148 120 119 105 114 118 97 87 193 175 210 249 219 228 223 255 111 241 239 258 266 240 251 256 260 252 241 238
237 246 261 277 295 309 317 302 216 193 204 254 261 62 90 118 158 163 151 131 129 133 199 72 221 218 223 221 268 78 263 266 203 92 275 257 273 279 275 254 257 254 250 248 241
228 233 243 264 285 298 298 231 160 54 266 148 271 131 103 260 175 187 165 173 176 191 152 187 240 250 163 194 215 215 246 255 251 197 261 294 287 280 272 254 253 262 256 249 248
220 222 227 244 276 258 164 164 158 116 256 246 210 175 146 170 218 180 193 169 184 181 197 223 123 112 196 179 198 224 235 230 265 288 201 301 281 239 221 239 241 252 252 257 246
212 210 211 210 189 178 164 160 148 157 276 234 194 170 136 152 217 94 179 227 185 225 181 245 136 185 194 220 205 237 200 183 178 237 270 328 293 263 256 261 255 263 243 260 253
209 205 198 190 157 165 157 156 144 189 272 143 152 120 137 185 123 132 126 150 200 168 187 203 168 180 211 246 193 350 113 138 132 208 316 196 259 276 184 270 277 280 16 353 302
203 205 194 184 170 156 149 141 137 160 239 170 138 167 153 169 135 131 152 132 103 145 214 266 143 204 104 83 69 140 104 79 67 130 240 237 218 280 280 284 289 309 28 26 21
201 199 196 183 186 163 150 145 153 216 41 183 187 185 196 159 159 177 168 176 177 161 210 187 211 142 169 120 107 204 169 224 221 184 248 17 223 253 300 284 277 288 335 352 332
191 192 194 189 164 156 149 129 209 195 196 85 123 138 202 159 181 168 158 187 215 184 145 184 240 179 168 217 184 187 228 218 237 246 324 153 228 243 281 299 296 332 329 304 326
185 174 173 172 165 171 187 201 196 194 151 157 130 190 204 204 181 179 204 214 198 192 196 181 217 108 43 131 262 160 209 50 283 154 263 242 243 281 272 284 6 33 36 16 355
156 150 164 172 168 178 209 226 199 179 158 164 210 208 201 185 183 198 186 200 224 201 249 177 189 105 120 157 68 238 136 144 204 251 257 208 259 245 300 20 39 40 25 18 21
103 133 152 160 155 189 209 220 205 194 166 166 180 188 203 183 204 199 191 180 220 173 201 167 236 129 166 205 186 157 199 198 267 214 271 286 248 96 48 51 33 24 21 18 19
340 123 160 161 174 190 211 210 210 211 191 165 137 181 199 178 192 218 218 249 357 162 176 203 196 200 202 47 316 230 225 197 223 217 239 283 262 142 71 46 22 13 5 354 347
338 109 14 24 182 194 187 209 226 221 199 188 203 189 179 190 220 206 205 56 21 192 161 163 203 221 188 235 240 227 200 222 255 265 248 253 246 146 35 19 6 353 353 349 345
119 105 40 34 50 256 200 203 199 6 230 233 184 187 166 203 224 222 201 28 29 57 18 260 224 236 249 309 107 191 206 216 220 242 260 247 267 268 2 357 356 2 359 356 357
41 95 330 152 94 86 40 35 115 148 36 1 185 228 216 223 223 227 220 150 51 356 35 356 252 254 272 283 265 270 250 211 218 233 240 269 273 44 5 346 344 355 357 1 357
124 144 53 76 80 83 98 86 78 113 43 85 114 82 140 129 2 113 121 153 158 48 64 351 266 329 269 270 262 269 260 250 252 255 259 268 267 2 338 332 343 323 354 355 349
128 103 180 109 113 113 56 86 77 109 41 43 108 97 76 89 87 72 50 73 103 91 84 346 335 182 266 324 18 278 257 234 217 67 283 255 29 339 339 324 320 316 348 346 337